Wind_Speed
19 11 13 13 14 16 16 18 18 19 20 22 23 25 25 26 26 25 25 23 23 24 22 20 22 22 23 26 28 27 27 26 26 25 23 22 20 19 18 16 13 12 11
21 15 13 14 15 16 18 20 21 22 22 22 22 24 26 26 25 26 26 25 24 24 24 22 23 25 25 25 28 29 28 27 27 26 24 24 22 22 18 17 15 13 12
27 22 16 17 17 18 20 22 23 23 23 23 23 24 27 27 26 26 27 26 26 26 25 25 24 26 27 27 27 30 29 27 27 28 28 28 26 23 22 20 18 15 13
30 25 22 20 21 20 22 24 25 25 25 24 24 24 27 29 28 28 29 28 28 27 24 24 23 24 27 29 26 25 28 28 27 27 27 29 24 25 23 20 17 16 14
32 27 27 26 25 23 24 27 26 26 26 25 25 25 27 30 29 28 29 29 28 27 25 21 22 23 27 33 33 25 26 28 28 28 28 27 23 22 21 20 17 16 14
34 32 31 30 30 26 26 29 29 28 27 26 25 27 26 29 30 30 29 30 28 25 23 21 23 23 25 27 28 26 24 28 29 29 27 24 23 21 20 19 17 15 14
37 37 36 36 33 30 27 30 31 30 29 27 26 25 26 28 30 31 31 30 28 25 24 23 24 20 21 27 24 29 22 27 28 28 25 24 23 21 19 17 16 16 14
37 37 37 36 36 34 27 29 33 32 30 27 25 25 25 27 29 30 31 31 28 24 24 23 26 19 21 32 30 26 21 24 27 26 23 24 22 21 20 19 17 17 16
34 34 34 34 34 31 28 30 32 31 30 26 26 26 25 28 29 30 30 29 29 29 25 24 27 23 31 26 24 22 22 22 26 26 24 23 22 21 19 19 18 17 15
36 31 33 35 34 31 29 30 30 32 31 28 28 26 26 28 30 30 29 30 30 28 27 26 28 29 26 23 20 22 22 20 24 25 24 23 20 22 22 19 19 17 15
37 34 31 34 35 35 34 32 30 33 32 30 28 26 27 30 30 30 30 28 28 29 28 26 29 28 26 22 21 21 25 23 23 24 25 25 23 23 22 21 19 19 16
36 31 28 32 33 35 33 33 30 34 34 32 29 27 29 30 30 30 29 28 27 29 29 28 29 29 27 24 25 27 29 27 27 25 23 25 26 22 23 21 20 20 18
37 32 29 34 33 34 35 34 32 35 34 34 29 27 30 30 30 29 28 28 27 29 29 28 27 27 29 30 22 22 31 28 29 26 26 26 26 25 24 22 21 21 19
42 36 32 32 38 39 34 33 34 33 36 34 29 29 31 29 31 28 27 28 29 29 30 27 27 26 32 32 23 19 22 30 31 28 29 27 26 26 26 25 23 21 20
50 38 34 35 41 38 39 43 35 33 36 34 32 32 31 29 30 28 28 29 29 27 30 30 28 28 30 29 23 23 21 25 29 32 30 28 27 27 26 24 23 22 20
53 43 38 38 38 41 41 41 43 37 37 35 33 35 32 29 30 27 27 28 28 27 29 29 28 27 30 27 27 26 21 21 27 32 32 30 31 28 27 25 24 23 22
57 49 39 41 37 41 38 41 38 35 36 36 35 36 32 31 29 26 26 28 27 26 27 25 26 25 27 25 26 26 28 30 29 30 32 31 29 30 29 27 25 23 22
53 53 42 43 39 41 39 39 38 35 38 35 36 36 32 31 27 23 25 28 26 23 22 20 20 22 27 27 31 30 28 31 32 30 31 33 34 30 30 29 25 25 23
52 51 46 45 43 41 40 38 40 37 37 35 37 36 34 30 24 22 25 27 26 21 19 22 18 21 25 27 25 30 27 35 34 31 30 37 33 30 29 28 25 25 24
56 53 50 49 44 43 41 37 41 37 35 35 37 36 34 27 23 22 26 26 25 22 20 20 21 18 24 27 26 32 28 40 39 33 32 39 33 29 30 29 28 28 27
52 52 52 51 44 42 38 35 40 37 35 35 39 37 31 25 24 25 27 25 24 23 21 22 19 21 20 21 24 30 29 44 39 36 34 36 29 30 31 30 30 28 26
49 42 49 49 47 41 37 36 42 41 35 38 40 34 28 25 25 27 28 25 24 24 24 25 26 26 25 22 24 27 24 41 41 41 39 36 32 32 31 31 32 30 29
42 41 42 45 44 40 36 37 37 41 36 38 37 29 28 26 26 28 28 26 24 26 27 29 32 33 33 32 28 28 31 44 47 44 41 35 32 30 31 33 35 34 32
43 41 41 43 40 39 36 34 37 38 33 36 33 33 27 28 28 28 27 25 24 28 30 30 32 34 37 36 34 32 28 40 45 43 41 38 35 32 33 35 36 35 34
38 37 37 41 36 37 35 33 36 37 35 35 37 32 27 31 29 29 26 23 26 26 27 29 31 32 34 34 34 33 28 38 47 39 36 35 37 35 37 38 37 37 36
29 32 37 38 34 33 38 35 35 37 37 37 37 30 29 32 32 28 25 24 23 23 24 27 29 29 34 36 34 33 27 33 37 34 34 35 35 36 40 41 40 39 38
Wind_Direction
271 268 261 264 272 277 278 281 284 292 298 307 314 313 307 305 302 301 297 296 292 291 291 290 287 284 282 271 263 258 250 247 248 250 237 244 249 252 247 252 252 246 241
281 277 280 278 275 274 275 278 281 290 294 297 307 310 307 305 301 300 296 293 292 290 290 289 288 286 283 276 263 255 243 242 242 239 239 249 246 245 246 245 246 245 239
279 282 277 276 276 273 273 277 282 286 289 292 297 305 306 303 297 296 292 290 289 289 290 290 292 289 285 277 264 254 247 236 237 237 244 248 247 242 247 240 238 235 230
269 277 282 278 275 274 271 275 279 281 286 289 291 300 307 305 299 296 292 290 289 290 293 293 294 292 290 281 265 259 253 244 239 241 244 249 247 243 241 234 232 225 224
265 272 276 276 273 272 270 270 273 274 278 284 289 295 303 301 297 296 293 290 291 294 297 295 291 291 291 287 278 255 251 242 239 239 243 246 243 238 237 235 231 221 221
263 266 270 274 276 273 273 271 270 270 275 280 283 289 297 297 295 295 293 293 294 293 293 288 287 283 296 289 298 255 258 245 239 236 239 240 244 238 234 231 227 221 219
264 271 274 276 278 276 273 272 269 268 271 276 278 285 295 294 294 295 295 295 294 286 283 283 281 283 287 283 294 268 248 247 238 234 235 237 238 239 235 230 227 219 215
270 272 271 273 275 277 273 270 268 267 267 270 274 281 290 290 289 290 292 292 288 279 278 283 281 278 268 279 288 277 243 246 240 232 231 234 236 236 229 225 224 216 214
270 273 277 275 274 274 270 267 264 263 263 264 272 277 284 288 290 293 294 292 290 286 278 279 273 272 259 274 279 262 261 225 236 232 228 229 231 230 228 220 218 214 215
269 270 274 275 274 273 268 263 262 260 259 261 268 276 282 287 292 294 295 291 288 283 278 279 278 264 264 267 260 241 264 233 232 231 230 228 225 224 224 223 217 213 214
268 270 274 275 274 273 270 260 258 257 257 260 268 274 283 288 292 293 292 291 289 283 275 273 275 273 263 261 240 235 246 243 230 231 227 229 226 223 223 222 217 215 217
268 267 272 277 279 275 270 263 257 256 255 259 265 272 281 288 291 292 291 289 284 276 273 272 270 266 260 241 239 236 238 242 237 229 224 228 226 223 222 220 218 218 222
263 264 273 277 273 273 270 265 253 254 257 260 266 273 281 286 290 289 288 284 281 273 270 266 265 264 261 254 229 245 241 237 242 222 224 226 225 224 224 221 220 222 225
264 265 268 272 273 266 262 264 250 253 257 262 268 272 279 284 290 289 287 283 278 270 268 261 261 260 254 246 241 235 239 234 237 231 225 222 225 226 226 223 221 227 228
267 265 262 265 267 265 263 264 255 252 256 262 267 273 279 284 293 288 283 283 276 269 268 258 257 258 251 245 229 219 222 234 235 226 223 223 225 224 223 225 225 228 231
259 259 259 262 263 261 256 250 249 249 252 259 266 273 281 289 292 285 282 279 271 270 268 254 250 253 253 249 221 212 221 220 229 227 226 225 230 227 224 228 230 236 238
263 263 259 261 258 258 250 246 246 245 249 257 266 273 281 289 287 280 278 274 267 276 279 253 240 241 245 244 227 217 225 225 219 223 224 225 228 227 228 231 232 239 241
257 262 257 257 258 249 247 247 246 242 247 255 264 271 281 285 282 278 274 271 266 272 281 279 242 237 240 250 237 241 225 223 227 229 226 225 226 230 231 233 234 244 242
251 255 253 254 256 242 248 242 243 239 246 255 263 271 279 283 284 282 274 268 262 268 271 276 260 245 239 244 254 248 242 224 224 224 220 225 228 229 232 231 235 237 241
250 247 249 250 251 243 243 242 243 240 247 257 263 270 278 281 281 281 277 264 262 265 268 265 260 250 240 242 251 258 245 224 223 221 221 227 227 229 231 232 239 241 243
249 245 244 245 245 243 240 237 245 244 246 254 260 268 278 278 277 277 276 260 261 264 262 262 262 251 248 252 263 257 261 219 220 220 220 231 230 228 231 232 240 241 245
240 235 239 241 241 240 239 228 239 239 244 252 260 270 272 271 273 273 272 258 259 262 261 260 258 257 255 257 260 262 229 211 217 221 223 233 230 231 233 235 240 242 244
238 229 233 234 237 234 236 229 235 244 245 255 264 267 262 263 269 268 263 257 257 261 263 264 263 261 256 254 254 261 229 218 217 220 224 228 231 231 232 235 240 242 242
227 223 223 227 232 230 232 228 232 242 247 253 254 257 258 257 262 262 255 256 262 265 268 267 263 259 256 254 250 250 234 225 219 220 225 229 234 232 231 236 240 245 245
225 221 223 222 225 226 227 230 229 238 244 246 250 258 248 253 259 258 256 258 269 269 267 267 268 264 251 247 246 246 249 218 224 225 224 226 230 230 233 232 238 241 242
245 222 229 230 230 231 225 228 231 239 240 242 249 248 243 250 260 253 256 265 267 271 270 266 270 261 250 245 239 243 243 223 226 221 224 230 233 239 240 236 237 239 242
Height
5852 5854 5853 5852 5852 5852 5851 5851 5851 5850 5850 5848 5848 5847 5845 5843 5842 5841 5840 5839 5838 5836 5835 5835 5835 5834 5833 5833 5833 5834 5835 5836 5839 5840 5841 5843 5843 5844 5845 5846 5846 5846 5846
5848 5849 5849 5849 5849 5848 5848 5848 5847 5847 5846 5846 5845 5844 5842 5841 5839 5837 5836 5834 5834 5833 5832 5831 5831 5830 5830 5828 5827 5828 5829 5832 5834 5837 5837 5839 5840 5842 5842 5843 5844 5844 5844
5844 5845 5846 5846 5846 5845 5845 5844 5844 5844 5843 5843 5842 5841 5839 5837 5836 5834 5833 5831 5829 5829 5828 5827 5827 5825 5825 5825 5823 5824 5826 5828 5831 5833 5834 5835 5838 5839 5839 5840 5841 5842 5842
5841 5842 5843 5843 5843 5842 5841 5840 5840 5840 5839 5839 5838 5837 5835 5834 5833 5831 5829 5827 5825 5825 5825 5823 5823 5822 5820 5821 5820 5820 5822 5825 5827 5829 5830 5831 5834 5835 5836 5837 5838 5839 5840
5838 5838 5838 5838 5839 5838 5837 5836 5836 5836 5835 5834 5834 5833 5832 5830 5829 5827 5825 5823 5821 5821 5821 5820 5818 5817 5816 5815 5813 5816 5818 5820 5822 5826 5827 5828 5831 5832 5834 5835 5836 5837 5838
5832 5832 5833 5833 5833 5834 5834 5832 5831 5831 5831 5830 5829 5829 5828 5826 5824 5823 5821 5817 5818 5817 5816 5816 5813 5813 5812 5812 5812 5813 5816 5817 5819 5821 5823 5826 5827 5829 5831 5833 5834 5836 5838
5827 5827 5827 5827 5828 5829 5830 5827 5826 5826 5826 5826 5825 5825 5823 5822 5820 5818 5817 5814 5813 5811 5811 5811 5809 5810 5808 5808 5809 5809 5811 5813 5815 5817 5820 5822 5824 5826 5829 5831 5832 5834 5836
5821 5822 5821 5822 5822 5823 5824 5823 5821 5821 5821 5821 5820 5820 5818 5817 5815 5814 5812 5811 5808 5806 5806 5806 5804 5805 5804 5804 5805 5804 5805 5809 5811 5814 5817 5819 5822 5824 5826 5828 5830 5832 5834
5815 5816 5815 5815 5815 5816 5817 5817 5815 5815 5814 5815 5815 5814 5812 5811 5810 5808 5807 5805 5803 5802 5802 5801 5801 5801 5802 5799 5801 5800 5802 5804 5808 5810 5814 5816 5819 5822 5824 5825 5828 5830 5832
5809 5810 5809 5809 5809 5811 5811 5811 5809 5808 5808 5808 5808 5808 5806 5805 5804 5803 5801 5799 5798 5797 5797 5797 5796 5796 5796 5796 5796 5797 5799 5801 5805 5807 5811 5814 5817 5820 5822 5823 5826 5828 5831
5800 5801 5802 5801 5801 5803 5804 5804 5803 5802 5802 5802 5802 5801 5800 5800 5799 5797 5795 5794 5793 5790 5791 5792 5791 5790 5791 5792 5792 5793 5796 5798 5801 5804 5807 5811 5814 5817 5820 5822 5824 5826 5828
5792 5793 5794 5794 5794 5794 5796 5796 5796 5795 5796 5796 5796 5795 5794 5793 5792 5790 5788 5787 5787 5784 5785 5785 5785 5785 5786 5787 5787 5789 5792 5794 5796 5800 5805 5808 5811 5814 5816 5819 5821 5824 5826
5781 5785 5788 5785 5787 5787 5787 5788 5789 5788 5789 5789 5790 5789 5788 5787 5785 5783 5782 5781 5781 5780 5780 5779 5779 5779 5779 5780 5782 5784 5787 5789 5793 5796 5801 5804 5808 5810 5813 5816 5818 5821 5823
5772 5775 5779 5780 5778 5778 5779 5780 5781 5781 5781 5782 5783 5782 5781 5781 5779 5777 5776 5775 5775 5775 5774 5773 5773 5773 5773 5774 5776 5779 5781 5784 5788 5792 5796 5800 5804 5807 5810 5813 5815 5818 5820
5761 5767 5769 5772 5770 5769 5771 5772 5774 5775 5775 5775 5776 5776 5776 5774 5773 5771 5770 5769 5769 5769 5768 5768 5767 5767 5768 5769 5772 5775 5778 5780 5784 5788 5792 5796 5800 5803 5807 5809 5812 5814 5816
5753 5758 5761 5763 5762 5761 5761 5763 5766 5767 5767 5769 5769 5768 5768 5767 5767 5765 5764 5765 5764 5763 5763 5760 5761 5762 5763 5764 5766 5769 5773 5775 5779 5784 5788 5792 5796 5800 5803 5806 5808 5811 5813
5737 5745 5750 5753 5756 5753 5753 5755 5757 5760 5760 5762 5762 5761 5760 5760 5760 5759 5758 5758 5759 5756 5756 5752 5754 5757 5759 5760 5762 5765 5768 5771 5775 5778 5783 5787 5791 5795 5798 5801 5804 5807 5808
5729 5731 5738 5740 5745 5745 5746 5748 5750 5751 5753 5755 5755 5755 5754 5755 5755 5754 5753 5752 5753 5752 5749 5746 5748 5751 5753 5755 5758 5759 5762 5766 5770 5773 5778 5781 5784 5790 5793 5797 5799 5802 5804
5719 5721 5725 5728 5734 5738 5736 5739 5740 5743 5746 5748 5748 5748 5748 5749 5748 5747 5747 5747 5747 5746 5745 5743 5743 5745 5748 5750 5753 5754 5756 5760 5764 5768 5773 5774 5780 5784 5789 5792 5795 5797 5799
5707 5708 5712 5717 5723 5727 5728 5730 5732 5736 5739 5741 5742 5741 5742 5742 5741 5741 5741 5741 5741 5740 5740 5742 5741 5741 5744 5746 5748 5747 5749 5753 5758 5764 5767 5768 5775 5779 5783 5786 5790 5791 5793
5693 5696 5699 5705 5713 5716 5722 5724 5725 5730 5732 5733 5733 5734 5736 5735 5736 5735 5735 5735 5734 5735 5735 5736 5737 5738 5740 5740 5741 5741 5742 5746 5751 5758 5761 5763 5770 5773 5778 5781 5784 5786 5787
5679 5684 5688 5694 5701 5706 5713 5716 5716 5720 5722 5724 5725 5728 5729 5730 5730 5730 5729 5729 5729 5729 5730 5731 5732 5733 5734 5734 5736 5736 5735 5740 5745 5750 5756 5759 5764 5767 5771 5774 5778 5779 5781
5665 5671 5678 5683 5690 5695 5701 5705 5709 5713 5714 5716 5720 5722 5723 5723 5723 5723 5723 5724 5723 5723 5724 5725 5726 5727 5728 5728 5730 5730 5730 5734 5739 5744 5750 5754 5757 5761 5764 5767 5771 5773 5775
5653 5660 5666 5672 5679 5684 5691 5697 5702 5705 5707 5709 5712 5714 5716 5717 5717 5716 5717 5717 5717 5717 5717 5716 5718 5718 5719 5720 5722 5724 5724 5730 5733 5739 5744 5747 5750 5755 5758 5760 5763 5766 5769
5645 5652 5660 5662 5669 5675 5682 5688 5693 5695 5698 5701 5704 5708 5710 5710 5710 5710 5710 5711 5710 5709 5709 5709 5708 5709 5709 5711 5714 5716 5718 5722 5728 5733 5736 5741 5744 5747 5750 5752 5756 5759 5761
5634 5643 5650 5655 5662 5668 5676 5679 5683 5687 5689 5693 5697 5701 5704 5703 5704 5704 5703 5703 5703 5702 5701 5701 5700 5700 5701 5702 5705 5708 5713 5716 5722 5727 5732 5734 5738 5740 5743 5746 5748 5751 5753